{"data":{"norad_id":53664,"intl_designator":"2022-105S","name":"STARLINK-4471","alt_names":[],"object_type":"PAYLOAD","status":"ACTIVE","operator":null,"country":"US","launch_date":"2022-08-31","launch_site_code":"AFWTR","launch_vehicle":null,"mission":null,"orbit_class":"UNKNOWN","rcs_meters":null,"size_class":null,"mass_kg":null,"dimensions":null,"purposes":["comms"],"wikipedia_slug":null,"has_3d_model":false,"image_url":null,"decayed_at":null,"tle_current":{"epoch":"2026-09-20T21:47:14.163648Z","epoch_age_seconds":46457,"freshness":"FRESH","line1":"1 53664U 22105S   26263.90780282  .00000208  00000+0  87759-5 0  9999","line2":"2 53664  97.2831 140.6695 0002092  87.2124 272.9358 15.33436389222809","mean_motion":15.33436389,"eccentricity":0.0002092,"inclination_deg":97.2831,"raan_deg":140.6695,"arg_perigee_deg":87.2124,"mean_anomaly_deg":272.9358,"bstar":8.7759e-6,"rev_number":22280,"period_min":93.90673198639,"perigee_km":464.13709162338,"apogee_km":467.00049812796,"semimajor_km":6843.7057948757,"source":"CELESTRAK","updated_at":"2026-09-21T09:00:32.952975Z"}}}